Location: Theydon Bois
(51.6750°N, 0.1050°E)
Time: 02:15:13
(UTC+00:00)

Daily predictions for brighter satellites

Satellite Brightness Start Highest point End
(mag) Time Altitude Azimuth Time Altitude Azimuth Time Altitude Azimuth
SL-16 R/B 4.3 03:13:07 20° NNE 03:13:07 20° NNE 03:14:47 10° NNE
USA 234 4.1 03:05:53 10° ESE 03:10:00 43° ESE 03:10:00 43° ESE
NOSS 3-2 (C) 4.3 03:23:54 49° ENE 03:23:54 49° ENE 03:28:58 10° NE
Lacrosse 5 3.9 03:25:43 24° E 03:25:43 24° E 03:27:47 10° ESE
CZ-4C R/B 4.5 03:35:53 22° SSE 03:35:53 22° SSE 03:38:31 10° SSE
ATLAS 3B R/B 2.8 03:45:29 65° NNE 03:45:29 65° NNE 03:51:10 10° NE
Cosmos 1943 3.7 03:51:38 56° ENE 03:51:38 56° ENE 03:56:22 10° NE
Cosmos 1818 4.2 03:53:52 52° ENE 03:53:52 52° ENE 03:58:05 10° NE
IDEFIX/ARIANE 42P 4.1 03:50:18 10° NNE 03:54:59 33° E 03:59:37 10° SSE
Cosmos 1656 Rocket 4.4 03:57:19 47° SE 03:57:19 47° SE 04:01:18 10° SSE
Cosmos 1603 4.3 04:07:24 48° N 04:07:24 48° N 04:11:31 10° NNE
CENTAUR R/B 2.6 04:09:49 62° S 04:10:49 74° SE 04:18:00 10° NE
Cosmos 1553 Rocket 4.3 04:07:54 10° S 04:13:55 63° E 04:20:04 10° NNE
USA 267 3.3 04:12:17 10° ENE 04:18:52 76° SSE 04:20:26 54° SW
Lacrosse 5 rocket 2.3 04:21:29 47° ENE 04:21:29 47° ENE 04:24:32 10° ENE
Cosmos 1743 Rocket 3.9 04:31:01 47° SSE 04:32:08 66° E 04:36:34 10° NNE
USA 238 DEB 4.1 04:33:40 43° NW 04:34:27 44° NNW 04:41:11 10° NE
USA 238 4.1 04:33:46 43° NW 04:34:33 44° NNW 04:41:17 10° NE
ADEOS II 4.1 04:30:27 10° N 04:31:27 15° N 04:31:27 15° N
COSMO-SKYMED 1 3.4 04:32:52 10° SE 04:37:04 50° ENE 04:40:19 16° N
Cosmos 2219 Rocket 4.4 04:40:55 12° NNW 04:41:05 12° NNW 04:43:03 10° N
Cosmos 1386 Rocket 4.3 04:37:21 10° N 04:43:24 89° W 04:49:27 10° S
USA 116 4.2 04:39:52 10° SSE 04:43:59 60° ENE 04:44:53 45° NNE
Okean O Rocket 2.3 04:39:48 10° NNE 04:44:09 54° E 04:48:27 10° S
Meteor 1-4 Rocket 4.2 04:43:50 10° SSE 04:47:12 34° E 04:50:32 10° NNE
Cosmos 407 Rocket 3.9 04:44:56 21° NNW 04:48:22 60° ENE 04:53:32 10° SE
CZ-4B R/B 3.9 04:43:40 10° NNE 04:49:08 56° ESE 04:54:38 10° S
Cosmos 2237 Rocket 4.2 04:52:06 14° NNW 04:52:06 14° NNW 04:54:42 10° N
MOS 1-B Rocket 4.1 04:45:14 10° NNE 04:51:53 79° ESE 04:57:41 10° SSW
SL-16 R/B 3.8 04:55:00 20° NNW 04:55:00 20° NNW 04:58:27 10° NNE
USA 234 3.6 04:49:39 10° SSE 04:55:50 43° SW 04:57:21 38° WSW
NOSS 3-2 (A) 4.0 04:57:17 37° WNW 04:58:48 43° NNW 05:05:32 10° NE
Cosmos 1980 Rocket 4.2 04:56:07 10° NNW 05:00:27 22° NE 05:04:46 10° E
PAYLOAD B 4.3 04:55:33 10° NNE 05:01:05 81° ESE 05:06:38 10° SSW
MSX 4.0 04:56:47 10° NNE 05:02:36 74° ESE 05:08:23 10° S
Cosmos 972 Rocket 4.0 05:00:05 23° NNW 05:03:24 83° WSW 05:09:04 10° SSE
Lacrosse 5 2.1 05:04:57 45° WSW 05:05:42 49° SW 05:10:35 10° SSE
Cosmos 2333 Rocket 4.4 05:04:37 11° NNW 05:05:51 11° N 05:07:30 10° N
CZ-4B R/B 3.8 05:01:51 10° N 05:05:00 37° NNW 05:05:00 37° NNW
SKYMED 3 4.4 05:02:39 10° SSE 05:07:00 87° WSW 05:10:38 15° NNW
Cosmos 1697 Rocket 4.2 05:02:06 10° NNW 05:07:10 33° NE 05:12:15 10° ESE
CZ-4B R/B 4.4 05:09:33 10° N 05:12:00 36° NNW 05:12:00 36° NNW
NOSS 3-2 (C) 4.0 05:11:22 34° WNW 05:13:36 45° NNW 05:20:22 10° NE
Cosmos 1892 2.6 05:16:43 10° SSW 05:20:35 80° WNW 05:24:29 10° N
S3M 4.0 05:14:43 10° SSW 05:20:59 57° WNW 05:27:17 10° N
Meteor PRIRODA 4.0 05:18:14 10° N 05:21:18 42° NW 05:21:18 42° NW
Meteor 1-31 Rocket 3.3 05:18:59 10° N 05:22:04 37° NW 05:22:04 37° NW
Cosmos 2285 Rocket 4.4 05:20:26 24° NW 05:23:39 41° WSW 05:29:27 10° S
Aureole 3 Rocket 3.0 05:19:36 10° S 05:24:37 82° E 05:28:20 10° NNE
Gbstr 26 Del rocket 3.0 05:23:05 30° SW 05:24:54 61° SSE 05:28:37 10° E
SKYMED 2 3.5 05:20:46 10° S 05:25:03 59° WSW 05:28:51 13° NNW
Meteor 2-19 Rocket 4.5 05:21:56 10° NNW 05:27:59 58° W 05:34:00 10° S
Meteor 1-26 Rocket 4.1 05:23:10 10° NNW 05:28:47 88° ENE 05:34:16 10° SSE
Cosmos 614 Rocket 3.9 05:26:58 11° NNW 05:31:55 87° ENE 05:37:01 10° SSE
GEOS 3 Rocket 4.2 05:26:49 10° ESE 05:32:01 55° NE 05:36:20 15° NW
SeaSat 1 3.1 05:28:05 10° NE 05:32:58 57° ESE 05:37:50 10° SSW
IDEFIX/ARIANE 42P 2.8 05:29:49 10° N 05:34:44 44° WNW 05:39:37 10° SW
Cosmos 1943 4.0 05:33:29 26° WNW 05:35:14 31° NW 05:40:16 10° NNE
Cosmos 1745 Rocket 4.5 05:29:43 10° NNW 05:35:17 35° W 05:40:46 10° SSW
ATLAS 3B R/B 3.4 05:32:45 23° WNW 05:36:00 35° NNW 05:42:05 10° NE
Cosmos 1818 4.3 05:34:32 26° WNW 05:36:38 35° NNW 05:41:40 10° NE
Cosmos 1500 Rocket 4.1 05:34:41 10° SW 05:38:44 36° WNW 05:42:51 10° N
CZ-2C R/B 2.5 05:42:00 10° N 05:47:02 56° WNW 05:51:53 10° SW
Cosmos 1023 Rocket 4.4 05:42:04 10° NNW 05:47:12 81° WSW 05:52:17 10° SSE
Cosmos 1805 Rocket 3.5 05:43:26 10° SSW 05:47:52 68° WNW 05:52:19 10° N
SJ-12 3.9 05:44:40 10° NNE 05:48:47 87° ESE 05:52:51 10° SSW
Cosmos 389 Rocket 2.3 05:46:52 10° SSW 05:50:20 69° WNW 05:53:47 10° N
Cosmos 1190 Rocket 4.2 05:46:01 12° NW 05:50:36 50° WSW 05:55:35 10° S
Cosmos 2369 3.9 05:45:54 10° NNW 05:51:36 73° ENE 05:57:15 10° SE
Cosmos 1709 Rocket 4.1 05:45:45 10° NNW 05:51:37 48° W 05:57:25 10° SSW
Cosmos 1606 2.6 05:48:11 10° NNW 05:52:06 81° W 05:55:59 10° S
Meteor 2-21 4.4 05:47:16 10° NNW 05:53:22 82° W 05:59:29 10° S
Okean-O 3.3 05:49:40 10° NNE 05:54:05 59° ESE 05:58:27 10° S
ERBS 3.3 05:55:49 22° NW 05:57:19 32° N 06:00:25 10° ENE
Cosmos 1954 Rocket 3.9 05:52:18 10° NNW 05:57:29 76° WSW 06:02:39 10° SSE
Cosmos 1437 Rocket 3.1 05:56:00 10° SW 05:59:35 37° WNW 06:03:10 10° N
Lacrosse 5 rocket 1.8 05:57:10 20° WNW 05:59:47 45° NNW 06:03:42 10° ENE
SL-24 R/B - RUBIN 2 3.6 05:55:24 10° SW 05:59:51 79° SE 06:04:14 10° NE
Cosmos 1633 Rocket 3.1 05:55:39 10° S 06:00:01 83° ESE 06:04:26 10° NNE
Cosmos 1656 3.7 05:54:42 10° NNW 06:00:26 89° WSW 06:06:09 10° SSE
Cosmos 1933 4.2 05:57:22 11° NNW 06:00:50 29° W 06:04:24 10° SSW
BREEZE-M R/B 3.4 05:58:58 10° SW 06:01:23 30° SSE 06:03:36 10° E
USA 267 3.4 05:55:24 10° ENE 06:01:51 63° NNW 06:07:47 12° W
CENTAUR R/B 3.2 05:57:02 16° W 06:02:05 44° NNW 06:09:17 10° NE
Cosmos 2315 Rocket 4.1 05:56:57 10° SSW 06:03:14 61° WNW 06:09:36 10° N
COSMOS 2406 3.3 05:57:43 10° SSW 06:03:23 84° ESE 06:09:06 10° NNE
Cosmos 1140 Rocket 3.5 05:58:45 10° NNW 06:03:50 62° WSW 06:08:53 10° S
Meteor 2-21 Rocket 4.4 05:57:43 10° NNW 06:03:50 85° W 06:09:57 10° S
Cosmos 1782 2.8 06:02:11 10° N 06:06:14 87° W 06:10:15 10° S
Cosmos 676 Rocket 4.1 06:01:17 10° NNW 06:06:23 59° WSW 06:11:27 10° S
Cosmos 1461 4.1 06:02:58 10° SSW 06:07:33 52° SE 06:12:04 10° NE
Cosmos 2322 Rocket 4.1 06:03:25 10° NNW 06:07:55 23° NE 06:12:24 10° E
Cosmos 1484 Rocket 2.6 06:05:30 10° N 06:09:12 64° WNW 06:12:52 10° SSW
CZ-2C R/B 4.1 06:08:20 10° SSW 06:12:31 40° W 06:16:44 10° NNW
COSMO-SKYMED 1 3.8 06:10:08 10° SW 06:13:30 22° W 06:16:53 10° NW
Cosmos 2098 Rocket 3.3 06:09:11 10° N 06:13:35 61° ENE 06:17:04 10° SSE
Cosmos 1825 2.2 06:10:27 10° SSW 06:14:12 59° WNW 06:17:59 10° N
Cosmos 1741 Rocket 4.3 06:10:06 10° NNW 06:15:25 73° ENE 06:20:40 10° SSE
Cosmos 1408 2.9 06:14:20 10° SSW 06:17:45 42° WNW 06:21:14 10° N
Nadezhda 1 Rocket 4.5 06:13:53 10° S 06:20:11 69° E 06:26:26 10° NNE
Okean O Rocket 2.7 06:16:45 10° N 06:20:13 23° WNW 06:23:38 10° WSW
Cosmos 1356 3.4 06:17:20 10° NNW 06:20:47 66° W 06:24:13 10° S
Feng Yun 1-1 Rocket 4.2 06:15:19 10° NNE 06:20:54 74° WNW 06:26:37 10° SSW
Meteor 1-4 Rocket 3.8 06:19:27 10° WSW 06:22:22 22° WNW 06:25:17 10° NNW
Meteor 1-10 Rocket 4.3 06:18:31 10° NNW 06:24:17 85° W 06:30:07 10° S
Cosmos 2219 Rocket 4.4 06:25:38 10° N 06:27:51 12° NNE 06:30:04 10° NE
CZ-4 R/B 3.3 06:24:49 10° NNE 06:28:46 36° E 06:32:40 10° SSE
CZ-4B R/B 4.0 06:24:40 10° N 06:29:26 31° WNW 06:34:16 10° WSW
Sich 1 3.6 06:27:09 10° SW 06:31:15 37° WNW 06:35:21 10° N
IRS-1C Rocket 4.5 06:26:26 10° N 06:31:21 40° WNW 06:36:14 10° SW
NOAA 6 4.5 06:26:47 10° N 06:31:32 39° WNW 06:36:14 10° SW
Cosmos 1624 Rocket 4.2 06:26:54 10° SW 06:32:00 52° WNW 06:37:10 10° NNE
Cosmos 2237 Rocket 4.4 06:37:27 10° N 06:38:42 11° N 06:39:57 10° NNE
Cosmos 1452 Rocket 3.7 06:34:25 10° SSW 06:39:41 82° ESE 06:44:59 10° NNE
Cosmos 2360 Rocket 4.1 06:36:28 10° NNW 06:40:42 21° NE 06:44:54 10° E
SL-16 R/B 4.3 06:39:37 10° NNW 06:40:54 11° N 06:42:11 10° N
Cosmos 1862 Rocket 3.9 06:38:10 10° NNW 06:42:19 43° W 06:46:25 10° SSW
SL-16 R/B 3.5 06:37:43 10° NNW 06:42:56 35° NE 06:48:07 10° ESE
Meteor 2-3 Rocket 4.1 06:38:25 10° SW 06:43:57 45° WNW 06:49:32 10° N
Cosmos 1980 Rocket 2.4 06:39:43 10° NNW 06:45:22 80° ENE 06:50:59 10° SSE
